Location: Bletchingley
(51.2333°N, 0.1000°W)
Time: 01:08:28
(UTC+00:00)

Cosmos 2279 Rocket - Pass Details

Date: 18 September 2020
Orbit: 963 x 979 km, 82.9° (Epoch: 30 October)

Event Time Altitude Azimuth Distance (km) Brightness Sun altitude
Exits shadow 20:20:51 36° 101° (ESE) 1,511 4.5 -20.7°
Maximum altitude 20:21:33 37° 87° (E) 1,484 4.5 -20.8°
Drops below altitude 10° 20:27:13 10° 23° (NNE) 2,744 6.5 -21.6°
Sets 20:29:54 0° 15° (NNE) 3,696 7.3 -21.9°
